This demonstration page uses our WeatherBlox Daily Observations layout. Learn more.

Left ArrowRight Arrow

39.92423, -83.80882

Hourly Observations for August 27, 2019

Temp ( °F °C ) Dew Point ( °F °C ) Humidity (%) Winds ( mph kmh ) Pressure ( in mb ) Visibility ( mi km ) Precip ( " mm )
12:18 am 00:18 Cloudy with Light Rain 66 19 66 19 100 100 S 7 11 29.9 1012 3 4.82802 0.01 0.254
12:56 am 00:56 Cloudy with Light Rain 67 19.4 67 19.4 100 100 S 6 9 29.9 1013 4 6.43736 0.02 0.508
1:56 am 01:56 Cloudy 68 20 68 20 100 100 S 8 13 29.89 1012 7 11.26538 0.03 0.762
2:56 am 02:56 Cloudy 68 20 68 20 100 100 SSW 6 9 29.87 1012 10 16.0934 0.02 0.508
3:56 am 03:56 Cloudy 68 20 68 20 100 100 SSW 6 9 29.88 1012 7 11.26538 0.03 0.762
4:44 am 04:44 Cloudy with Mist and Fog 68 20 68 20 100 100 SSW 9 15 29.86 1011 3 4.82802 0.01 0.254
4:56 am 04:56 Cloudy with Haze N/A N/A N/A SSW 9 15 N/A 5 8.0467 0.01 0.254
5:56 am 05:56 Cloudy 68 20 68 20 100 100 SSW 9 15 29.87 1012 10 16.0934 0.01 0.254
6:56 am 06:56 Cloudy 68 20 68 20 100 100 SSW 9 15 29.87 1012 10 16.0934 0.01 0.254
7:38 am 07:38 Cloudy with Mist and Fog 68 20 68 20 100 100 SSW 8 13 29.85 1011 1.75 2.816345 N/A
7:56 am 07:56 Cloudy with Mist and Fog N/A N/A N/A SSW 8 13 N/A 1.5 2.41401 0.001 0.001
8:12 am 08:12 Cloudy with Mist and Fog 68 20 68 20 100 100 SSW 10 17 29.86 1011 2.5 4.02335 N/A
8:24 am 08:24 Cloudy with Mist and Fog 68 20 68 20 100 100 SSW 8 13 29.86 1011 4 6.43736 N/A
8:56 am 08:56 Cloudy 69 20.6 69 20.6 100 100 S 9 15 29.87 1011 10 16.0934 N/A
9:04 am 09:04 Cloudy 70 21 70 21 100 100 SSW 7 11 29.85 1011 9 14.48406 N/A
9:41 am 09:41 Cloudy with Light Rain 70 21 70 21 100 100 SSW 9 15 29.86 1011 1.75 2.816345 0.001 0.001
9:56 am 09:56 Cloudy with Light Rain 69 20.6 69 20.6 100 100 SSW 9 15 29.88 1012 2 3.21868 0.001 0.001
10:06 am 10:06 Cloudy with Mist and Fog 70 21 70 21 100 100 SSW 8 13 29.86 1011 5 8.0467 0.001 0.001
10:56 am 10:56 Cloudy 70 21.1 70 21.1 100 100 SSW 8 13 29.87 1012 8 12.87472 0.001 0.001
11:09 am 11:09 Cloudy 70 21 70 21 100 100 SSW 9 15 29.85 1011 10 16.0934 N/A
11:56 am 11:56 Cloudy 71 21.7 71 21.7 100 100 SW 8 13 29.88 1012 10 16.0934 N/A
12:54 pm 12:54 Cloudy with Light Rain 72 22 72 22 100 100 S 5 7 29.84 1011 4 6.43736 0.001 0.001
12:56 pm 12:56 Cloudy with Light Rain 72 22.2 72 22.2 100 100 SSW 3 6 29.87 1012 4 6.43736 0.001 0.001
1:18 pm 13:18 Cloudy with Light Rain 73 23 73 23 100 100 SW 6 9 29.84 1011 10 16.0934 0.001 0.001
1:56 pm 13:56 Cloudy 74 23.3 74 23.3 100 100 SW 9 15 29.86 1011 10 16.0934 0.001 0.001
2:20 pm 14:20 Cloudy 73 23 73 23 100 100 SSW 7 11 29.84 1011 9 14.48406 N/A
2:56 pm 14:56 Cloudy with Light Rain 75 23.9 75 23.9 100 100 SSW 7 11 29.85 1011 10 16.0934 0.001 0.001
3:27 pm 15:27 Cloudy with Heavy Rain 73 23 73 23 100 100 W 10 17 29.83 1010 5 8.0467 0.001 0.001
3:35 pm 15:35 Cloudy with Heavy Rain 73 23 73 23 100 100 W 12 19 29.83 1010 3 4.82802 N/A
3:56 pm 15:56 Cloudy with Light Rain 73 22.8 73 22.8 100 100 W 12 19 29.86 1011 5 8.0467 N/A
4:56 pm 16:56 Partly Cloudy 74 23.3 74 23.3 100 100 W 7 11 29.84 1010 10 16.0934 N/A
5:54 pm 17:54 Cloudy 75 24 73 23 94 94 W 5 7 29.84 1010 10 16.0934 0.01 0.254
5:56 pm 17:56 Cloudy 74 23.3 74 23.3 100 100 W 5 7 29.86 1011 10 16.0934 0.01 0.254
6:18 pm 18:18 Cloudy with Light Rain 73 23 73 23 100 100 WSW 8 13 29.84 1011 7 11.26538 0.001 0.001
6:56 pm 18:56 Cloudy 74 23.3 73 22.8 97 97 W 5 7 29.86 1011 10 16.0934 0.02 0.508
7:56 pm 19:56 Mostly Sunny 72 22.2 72 22.2 100 100 W 5 7 29.86 1011 10 16.0934 0.02 0.508
8:56 pm 20:56 Mostly Cloudy 71 21.7 71 21.7 100 100 N N/A 29.89 1012 10 16.0934 0.04 1.016
9:56 pm 21:56 Clear 69 20.6 69 20.6 100 100 SW 3 6 29.91 1013 10 16.0934 0.02 0.508
10:56 pm 22:56 Clear 67 19.4 67 19.4 100 100 W 6 9 29.93 1013 10 16.0934 0.02 0.508
11:56 pm 23:56 Clear 66 18.9 66 18.9 100 100 W 8 13 29.93 1013 10 16.0934 0.01 0.254

Powered by AerisWeather